Location: Unspecified
(0.0000°N, 0.0000°E)
Time: 14:30:35
(UTC+00:00)

Vanguard 2 - All Passes

Search period start: 05 March 2015 00:00
Search period end: 15 March 2015 00:00
Orbit: 553 x 2946 km, 32.9° (Epoch: 04 March)

Date Brightness Start Highest point End Pass type
(mag) Time Alt. Az. Time Alt. Az. Time Alt. Az.
05 Mar - 06:28:55 10° N 06:31:25 16° NE 06:34:09 10° ENE daylight
05 Mar - 08:35:38 10° WNW 08:39:42 44° SSW 08:45:23 10° SE daylight
05 Mar - 10:48:07 10° SSW 10:50:26 12° SSW 10:52:52 10° S daylight
05 Mar - 15:12:11 10° SSW 15:20:06 17° SSE 15:30:12 10° ESE daylight
05 Mar - 17:20:29 10° SSW 17:35:33 42° SSE 17:51:35 10° E daylight
05 Mar - 19:31:25 10° SW 19:49:41 90° NW 20:04:36 10° NE visible
05 Mar - 21:47:09 10° W 22:02:22 37° NW 22:13:02 10° NNE visible
06 Mar - 06:46:54 10° NNW 06:50:28 32° NE 06:54:26 10° E daylight
06 Mar - 08:55:20 10° W 08:59:04 25° SSW 09:03:55 10° SSE daylight
06 Mar - 15:30:40 10° SSW 15:40:27 22° SSE 15:52:54 10° ESE daylight
06 Mar - 17:39:14 10° SW 17:55:18 53° SSE 18:11:54 10° ENE daylight
06 Mar - 19:50:55 10° WSW 20:09:05 73° NW 20:23:38 10° NE visible
06 Mar - 22:08:28 10° W 22:21:51 28° NNW 22:31:21 10° NNE visible
07 Mar - 07:05:32 10° NW 07:09:26 71° NE 07:13:57 10° ESE daylight
07 Mar - 09:15:48 10° WSW 09:18:36 15° SSW 09:21:51 10° SSE daylight
07 Mar - 15:49:07 10° SSW 16:00:34 28° SSE 16:14:56 10° E daylight
07 Mar - 17:58:05 10° SW 18:14:54 66° SE 18:31:47 10° ENE visible
07 Mar - 20:10:46 10° WSW 20:28:27 58° NW 20:42:29 10° NE visible
07 Mar - 22:30:32 10° WNW 22:41:33 21° NNW 22:49:29 10° NNE visible
08 Mar - 05:18:03 10° N 05:19:59 13° NNE 05:21:56 10° ENE visible
08 Mar - 07:24:37 10° WNW 07:28:28 53° SSW 07:32:58 10° SE daylight
08 Mar - 14:01:47 10° S 14:05:51 12° SSE 14:11:22 10° SE daylight
08 Mar - 16:07:37 10° SSW 16:20:27 36° SSE 16:36:18 10° E daylight
08 Mar - 18:17:08 10° SW 18:34:23 82° SE 18:51:19 10° ENE visible
08 Mar - 20:31:03 10° WSW 20:47:55 45° NW 21:01:08 10° NNE visible
08 Mar - 22:53:31 10° WNW 23:01:30 15° NNW 23:07:18 10° N visible
09 Mar - 05:35:41 10° NNW 05:39:15 25° NNE 05:42:34 10° E visible
09 Mar - 07:44:14 10° W 07:47:37 26° SSW 07:51:30 10° SSE daylight
09 Mar - 14:19:26 10° S 14:26:07 16° SSE 14:35:10 10° ESE daylight
09 Mar - 16:26:12 10° SW 16:40:07 46° SSE 16:57:02 10° ENE daylight
09 Mar - 18:36:24 10° WSW 18:53:50 82° NW 19:10:32 10° NE visible
09 Mar - 20:51:52 10° W 21:07:31 35° NNW 21:19:41 10° NNE visible
09 Mar - 23:17:58 10° NW 23:21:41 11° NNW 23:24:14 10° N visible
10 Mar - 05:54:09 10° NW 05:58:22 51° NNE 06:02:14 10° ESE daylight
10 Mar - 08:04:41 10° WSW 08:06:57 14° SSW 08:09:19 10° S daylight
10 Mar - 14:37:28 10° SSW 14:46:08 22° SSE 14:57:57 10° ESE daylight
10 Mar - 16:44:55 10° SW 16:59:38 58° SE 17:17:15 10° ENE daylight
10 Mar - 18:55:58 10° WSW 19:13:17 66° NW 19:29:33 10° NE visible
10 Mar - 21:13:19 10° W 21:27:19 27° NNW 21:38:07 10° NNE visible
11 Mar - 04:05:55 10° N 04:08:21 13° NNE 04:10:37 10° NE visible
11 Mar - 06:13:07 10° WNW 06:17:23 72° SW 06:21:22 10° SE daylight
11 Mar - 14:55:42 10° SSW 15:05:54 29° SSE 15:19:55 10° E daylight
11 Mar - 17:03:46 10° SW 17:19:03 73° SE 17:37:04 10° ENE daylight
11 Mar - 19:15:54 10° WSW 19:32:50 52° NNW 19:48:23 10° NE visible
11 Mar - 21:35:28 10° WNW 21:47:21 21° NNW 21:56:28 10° NNE visible
12 Mar - 04:23:35 10° NNW 04:27:51 23° NNE 04:31:18 10° E visible
12 Mar - 06:32:36 10° W 06:36:23 32° SW 06:40:01 10° SSE daylight
12 Mar - 13:11:02 10° SSE 13:12:27 10° SSE 13:14:54 10° SE daylight
12 Mar - 15:14:04 10° SSW 15:25:27 38° SE 15:41:08 10° E daylight
12 Mar - 17:22:50 10° SW 17:38:27 90° W 17:56:31 10° NE daylight
12 Mar - 19:36:16 10° W 19:52:32 41° NNW 20:07:05 10° NNE visible
12 Mar - 21:58:19 10° NW 22:07:38 16° NNW 22:14:46 10° N visible
13 Mar - 04:42:00 10° NW 04:47:10 42° NNE 04:51:04 10° ESE visible
13 Mar - 06:52:48 10° WSW 06:55:28 16° SSW 06:58:01 10° S daylight
13 Mar - 13:27:02 10° S 13:32:23 15° SSE 13:39:52 10° ESE daylight
13 Mar - 15:32:35 10° SW 15:44:50 50° SE 16:01:45 10° ENE daylight
13 Mar - 17:42:09 10° WSW 17:57:55 74° NW 18:15:43 10° NE daylight
13 Mar - 19:57:11 10° W 20:12:26 32° NNW 20:25:42 10° NNE visible
13 Mar - 22:21:45 10° NW 22:28:07 13° NNW 22:33:04 10° N visible
14 Mar - 02:52:27 10° NNW 02:56:28 15° NNE 02:59:50 10° NE visible
14 Mar - 05:00:54 10° NW 05:06:16 84° NE 05:10:18 10° ESE visible
14 Mar - 13:44:41 10° S 13:52:04 21° SSE 14:02:39 10° E daylight
14 Mar - 15:51:16 10° SW 16:04:08 64° SE 16:21:52 10° ENE daylight
14 Mar - 18:01:46 10° WSW 18:17:29 59° NNW 18:34:41 10° NE visible
14 Mar - 20:18:42 10° WNW 20:32:33 26° NNW 20:44:18 10° NNE visible
14 Mar - 22:45:25 10° NNW 22:48:46 11° N 22:51:24 10° N visible
